Date String (YYYY-MM-DD hh:mm:ss) UTC,Instrument flags,absolute air pressure of the measurement (hPa),sample flow rate (lpm),inlet stack bypass flow (lpm),air temperature of the measurement (°C),ambient temperature measured by the external sensor (°C),aerosol sample conditioner tube jacket temperature (°C),OPC LED temperature (°C),internal box temperature (°C),relative humidity of the measurement (%),span deviation,mass concentration of particles derived from Lorenz-Mie calculation of OPC scattering (μg/m³),mass concentration of particles derived from Lorenz-Mie calculation of OPC scattering (μg/m³),mass concentration of particles derived from Lorenz-Mie calculation of OPC scattering (μg/m³)
DateTimeUTC,F1_M11,P_M11,Q1_M11,Q2_M11,T1_M11,T2_M11,T3_M11,T4_M11,T5_M11,U1_M11,ZSPAN_M11,X0_M11,X2_M11,X1_M11
2023-06-20 22:00:00,SystemResetWarning,0828.4,5.01,000.00,029.4,025.8,000.0,037.9,030.8,22.1,0000.0,0022.40,0006.31,0004.14
2023-06-20 22:01:00,SystemResetWarning,0828.4,5.00,000.00,029.4,026.3,000.0,037.9,030.9,22.3,0000.0,0023.05,0006.27,0004.14
2023-06-20 22:02:00,SystemResetWarning,0828.4,4.99,000.00,029.4,026.8,000.0,037.9,031.0,21.0,0000.0,0023.19,0006.30,0004.12
2023-06-20 22:03:00,SystemResetWarning,0828.4,5.00,000.00,029.4,027.2,000.0,037.9,031.0,21.3,0000.0,0023.43,0006.24,0004.09
2023-06-20 22:04:00,SystemResetWarning,0828.4,5.00,000.00,029.4,027.5,000.0,037.9,031.1,22.3,0000.0,0022.57,0006.12,0004.08
2023-06-20 22:05:00,SystemResetWarning,0828.4,4.99,000.00,029.5,027.8,000.0,037.9,031.2,21.7,0000.0,0023.37,0006.08,0004.05
2023-06-20 22:06:00,SystemResetWarning,0828.4,5.00,000.00,029.5,028.0,000.0,037.9,031.2,22.4,0000.0,0023.64,0006.09,0004.04
2023-06-20 22:07:00,SystemResetWarning,0828.4,5.00,000.00,029.6,027.3,000.0,037.9,031.3,22.9,0000.0,0022.53,0006.04,0004.03
2023-06-20 22:08:00,SystemResetWarning,0828.4,5.00,000.00,029.5,025.2,000.0,037.9,031.1,21.4,0000.0,0023.06,0005.99,0004.03
2023-06-20 22:09:00,SystemResetWarning,0828.4,5.01,000.00,029.5,024.5,000.0,037.8,031.0,21.6,0000.0,0023.29,0005.95,0004.02
2023-06-20 22:10:00,SystemResetWarning,0828.4,5.01,000.00,029.4,024.9,000.0,037.8,030.8,21.7,0000.0,0023.58,0005.94,0004.02
2023-06-20 22:11:00,SystemResetWarning,0828.4,5.00,000.00,029.3,025.3,000.0,037.8,030.7,21.9,0000.0,0023.45,0005.89,0004.01
2023-06-20 22:12:00,SystemResetWarning,0828.4,5.00,000.00,029.3,025.9,000.0,037.8,030.8,22.0,0000.0,0022.14,0005.84,0004.00
2023-06-20 22:13:00,SystemResetWarning,0828.4,5.00,000.00,029.3,026.4,000.0,037.8,030.9,22.1,0000.0,0021.34,0005.79,0004.01
2023-06-20 22:14:00,SystemResetWarning,0828.4,4.99,000.00,029.3,026.8,000.0,037.8,031.0,21.2,0000.0,0020.10,0005.75,0004.03
2023-06-20 22:15:00,SystemResetWarning,0828.4,5.00,000.00,029.4,027.2,000.0,037.9,031.0,22.8,0000.0,0019.96,0005.77,0004.03
2023-06-20 22:16:00,SystemResetWarning,0828.4,5.00,000.00,029.4,027.5,000.0,037.9,031.1,23.7,0000.0,0019.26,0005.81,0004.05
2023-06-20 22:17:00,SystemResetWarning,0828.4,4.99,000.00,029.4,027.8,000.0,037.9,031.2,23.1,0000.0,0019.54,0005.77,0004.07
2023-06-20 22:18:00,SystemResetWarning,0828.4,5.00,000.00,029.5,028.0,000.0,037.9,031.2,22.8,0000.0,0020.71,0005.82,0004.07
2023-06-20 22:19:00,SystemResetWarning,0828.4,4.99,000.00,029.5,027.7,000.0,037.9,031.3,22.9,0000.0,0020.11,0005.88,0004.08
2023-06-20 22:20:00,SystemResetWarning,0828.4,5.00,000.00,029.5,025.6,000.0,037.9,031.2,23.4,0000.0,0021.03,0005.92,0004.10
2023-06-20 22:21:00,SystemResetWarning,0828.4,5.01,000.00,029.5,024.4,000.0,037.8,031.1,22.4,0000.0,0021.20,0005.93,0004.12
2023-06-20 22:22:00,SystemResetWarning,0828.4,5.01,000.00,029.5,024.8,000.0,037.8,030.9,22.3,0000.0,0022.44,0005.97,0004.15
2023-06-20 22:23:00,SystemResetWarning,0828.4,5.00,000.00,029.4,025.3,000.0,037.8,030.8,23.6,0000.0,0023.79,0006.00,0004.17
2023-06-20 22:24:00,SystemResetWarning,0828.4,5.00,000.00,029.3,025.8,000.0,037.8,030.8,24.0,0000.0,0024.70,0006.01,0004.17
2023-06-20 22:25:00,SystemResetWarning,0828.4,5.00,000.00,029.3,026.3,000.0,037.8,030.9,22.6,0000.0,0024.82,0006.07,0004.18
2023-06-20 22:26:00,SystemResetWarning,0828.4,5.00,000.00,029.4,026.8,000.0,037.8,031.0,22.7,0000.0,0025.41,0006.13,0004.20
2023-06-20 22:27:00,SystemResetWarning,0828.4,5.00,000.00,029.4,027.2,000.0,037.9,031.0,23.6,0000.0,0026.77,0006.16,0004.20
2023-06-20 22:28:00,SystemResetWarning,0828.4,5.00,000.00,029.4,027.6,000.0,037.9,031.1,23.4,0000.0,0027.36,0006.17,0004.21
2023-06-20 22:29:00,SystemResetWarning,0828.4,4.99,000.00,029.5,027.9,000.0,037.9,031.2,23.1,0000.0,0026.66,0006.14,0004.23
2023-06-20 22:30:00,SystemResetWarning,0828.4,5.00,000.00,029.5,028.1,000.0,037.9,031.3,22.5,0000.0,0026.39,0006.19,0004.26
2023-06-20 22:31:00,SystemResetWarning,0828.4,4.99,000.00,029.6,027.4,000.0,037.9,031.3,22.9,0000.0,0025.27,0006.20,0004.27
2023-06-20 22:32:00,SystemResetWarning,0828.4,5.00,000.00,029.5,025.4,000.0,037.9,031.0,22.1,0000.0,0024.87,0006.21,0004.28
2023-06-20 22:33:00,SystemResetWarning,0828.4,5.00,000.00,029.5,024.7,000.0,037.8,031.0,22.6,0000.0,0024.13,0006.20,0004.27
2023-06-20 22:34:00,SystemResetWarning,0828.4,5.02,000.00,029.4,025.1,000.0,037.8,030.8,23.8,0000.0,0024.10,0006.26,0004.25
2023-06-20 22:35:00,SystemResetWarning,0828.4,5.00,000.00,029.3,025.5,000.0,037.8,030.8,23.7,0000.0,0024.46,0006.35,0004.27
2023-06-20 22:36:00,SystemResetWarning,0828.4,5.00,000.00,029.3,026.0,000.0,037.8,030.9,21.9,0000.0,0025.40,0006.37,0004.26
2023-06-20 22:37:00,SystemResetWarning,0828.4,4.99,000.00,029.4,026.5,000.0,037.8,030.9,24.3,0000.0,0026.24,0006.39,0004.26
2023-06-20 22:38:00,SystemResetWarning,0828.4,4.99,000.00,029.4,027.0,000.0,037.8,031.0,23.5,0000.0,0024.56,0006.31,0004.25
2023-06-20 22:39:00,SystemResetWarning,0828.4,4.99,000.00,029.4,027.3,000.0,037.9,031.1,22.1,0000.0,0023.85,0006.34,0004.24
2023-06-20 22:40:00,SystemResetWarning,0828.4,5.00,000.00,029.5,027.7,000.0,037.9,031.2,23.0,0000.0,0025.08,0006.30,0004.22
2023-06-20 22:41:00,SystemResetWarning,0828.4,5.01,000.00,029.5,027.9,000.0,037.9,031.2,23.5,0000.0,0025.45,0006.20,0004.21
2023-06-20 22:42:00,SystemResetWarning,0828.4,5.00,000.00,029.5,027.6,000.0,037.9,031.3,23.1,0000.0,0025.58,0006.15,0004.17
2023-06-20 22:43:00,SystemResetWarning,0828.4,4.98,000.00,029.5,025.6,000.0,037.9,031.0,21.2,0000.0,0025.93,0006.13,0004.15
2023-06-20 22:44:00,SystemResetWarning,0828.4,5.03,000.00,029.5,024.5,000.0,037.8,031.0,20.7,0000.0,0026.20,0006.16,0004.13
2023-06-20 22:45:00,SystemResetWarning,0828.4,5.00,000.00,029.4,024.9,000.0,037.8,030.9,22.2,0000.0,0025.22,0006.10,0004.11
2023-06-20 22:46:00,SystemResetWarning,0828.4,4.99,000.00,029.3,025.3,000.0,037.8,030.7,20.3,0000.0,0024.15,0006.06,0004.10
2023-06-20 22:47:00,SystemResetWarning,0828.4,5.00,000.00,029.3,025.9,000.0,037.8,030.8,22.4,0000.0,0022.92,0005.98,0004.07
2023-06-20 22:48:00,SystemResetWarning,0828.4,5.01,000.00,029.3,026.4,000.0,037.8,030.9,20.8,0000.0,0021.87,0005.88,0004.03
2023-06-20 22:49:00,SystemResetWarning,0828.4,5.00,000.00,029.3,026.8,000.0,037.8,030.9,21.1,0000.0,0022.39,0005.90,0004.00
2023-06-20 22:50:00,SystemResetWarning,0828.4,4.99,000.00,029.4,027.2,000.0,037.8,031.0,21.3,0000.0,0022.79,0005.89,0003.99
2023-06-20 22:51:00,SystemResetWarning,0828.5,5.00,000.00,029.4,027.5,000.0,037.9,031.1,19.8,0000.0,0022.74,0005.90,0003.97
2023-06-20 22:52:00,SystemResetWarning,0828.5,5.00,000.00,029.5,027.8,000.0,037.9,031.2,19.6,0000.0,0021.98,0005.92,0003.94
2023-06-20 22:53:00,SystemResetWarning,0828.5,5.01,000.00,029.5,028.1,000.0,037.9,031.2,20.3,0000.0,0022.60,0005.86,0003.92
2023-06-20 22:54:00,SystemResetWarning,0828.5,4.99,000.00,029.6,028.0,000.0,037.9,031.3,21.6,0000.0,0022.35,0005.87,0003.90
2023-06-20 22:55:00,SystemResetWarning,0828.5,4.98,000.00,029.5,026.3,000.0,037.9,031.1,21.3,0000.0,0022.20,0005.82,0003.87
2023-06-20 22:56:00,SystemResetWarning,0828.4,5.00,000.00,029.5,024.7,000.0,037.8,030.9,21.7,0000.0,0023.13,0005.80,0003.85
2023-06-20 22:57:00,SystemResetWarning,0828.4,5.01,000.00,029.5,024.8,000.0,037.8,030.9,22.2,0000.0,0023.27,0005.73,0003.83
2023-06-20 22:58:00,SystemResetWarning,0828.4,5.00,000.00,029.4,025.2,000.0,037.8,030.7,22.6,0000.0,0023.94,0005.72,0003.82
2023-06-20 22:59:00,SystemResetWarning,0828.4,5.00,000.00,029.3,025.7,000.0,037.8,030.8,21.4,0000.0,0024.67,0005.77,0003.83
